User: anonymous
Location: Mt. Cuba Astronomical Observatory
(39.8100°N, 75.6300°W)
Time: 06:26:33
(UTC-04:00)
Language:

Cosmos 2058 - Orbit

View from above orbital plane
View from above orbital plane
View from above satellite
View from above satellite

Ground track
Ground track

The orbit data is extracted from the following two-line orbital elements,

1 20465U 90010A   14112.83872117  .00004895  00000-0  44859-3 0   904
2 20465 082.4899 273.0263 0016298 202.1491 157.9027 14.94631537313143
Epoch (UTC): 22 April 2014 20:07:45
Eccentricity: 0.0016298
inclination: 82.4899°
perigee height: 572 km
apogee height: 595 km
right ascension of ascending node: 273.0263°
argument of perigee: 202.1491°
revolutions per day: 14.94631537
mean anomaly at epoch: 157.9027°
orbit number at epoch: 31314

The dashed part of the orbit path shows where the satellite is in the earth's shadow,  

DLR